User: anonymous   Login
Location: Unspecified
(0.0000°N, 0.0000°E)
Time: 16:40:54
(UTC+00:00)
Language:

MUOS 3 - Orbit

View from above orbital plane
View from above orbital plane
View from above satellite
View from above satellite

Ground track
Ground track

The orbit data is extracted from the following two-line orbital elements,

1 40374U 15002A   17079.46693108 0.00000000  00000-0  00000-0 0    00
2 40374   4.1844 330.8148 0049449 181.6303 178.3246  1.00270000    01
Epoch (UTC): 20 March 2017 11:12:22
Eccentricity: 0.0049449
inclination: 4.1844°
perigee height: 35578 km
apogee height: 35995 km
right ascension of ascending node: 330.8148°
argument of perigee: 181.6303°
revolutions per day: 1.00270000
mean anomaly at epoch: 178.3246°
orbit number at epoch: 0

The dashed part of the orbit path shows where the satellite is in the earth's shadow,  

DLR